Location: Newark
(36.9825°N, 30.4647°E)
Time: 12:26:35
(UTC+00:00)

Envisat - Visible Passes

Search period start: 20 October 2019 00:00
Search period end: 30 October 2019 00:00
Orbit: 764 x 766 km, 98.1° (Epoch: 20 October)

Date Brightness Start Highest point End Pass type
(mag) Time Alt. Az. Time Alt. Az. Time Alt. Az.
20 Oct 3.0 15:48:58 10° SSE 15:53:57 60° ENE 15:58:57 10° N visible
20 Oct 6.1 17:30:52 10° WSW 17:33:20 14° W 17:35:48 10° WNW visible
21 Oct 4.8 16:51:47 10° SSW 16:56:16 32° W 17:00:48 10° NW visible
22 Oct 6.8 03:27:33 10° E 03:27:47 10° E 03:28:02 10° E visible
22 Oct 3.2 16:14:21 10° S 16:19:24 75° WSW 16:24:30 10° NNW visible
23 Oct 3.2 15:37:54 10° SE 15:42:44 47° ENE 15:47:35 10° N visible
23 Oct 5.8 17:18:37 10° SW 17:21:58 18° W 17:25:19 10° NW visible
24 Oct 4.4 16:40:12 10° SSW 16:44:57 41° W 16:49:45 10° NNW visible
25 Oct 2.9 16:03:04 10° SSE 16:08:09 85° ENE 16:13:15 10° NNW visible
26 Oct 3.5 15:26:54 10° SE 15:31:32 37° ENE 15:36:10 10° N visible
26 Oct 5.4 17:06:40 10° SW 17:10:37 23° W 17:14:34 10° NW visible
27 Oct 6.2 03:39:19 10° ENE 03:42:11 15° E 03:45:03 10° SE visible
27 Oct 3.8 16:28:44 10° S 16:33:40 52° W 16:38:38 10° NNW visible
28 Oct 2.9 15:51:53 10° SSE 15:56:54 67° ENE 16:01:57 10° N visible
28 Oct 6.2 17:34:23 10° WSW 17:36:20 12° W 17:38:18 10° WNW visible
29 Oct 5.0 16:54:55 10° SSW 16:59:16 29° W 17:03:39 10° NW visible
